When you browse on this site, cookies collect data to enhance your experience and personalize the content and advertising you see.
Visit our Privacy Policy to learn more. By continuing to use the site, you agree to this use of cookies and data.
  • In Schweiz
  • Länderverzeichnis
  • Für 7 Tage
  • Wassertemperatur
  • Satellitenkarten
  • Wetterkarte
  • Widgets
  • user-avatar
    Anmelden

    Stündliche Wetter Klagenfurt

    Heute, 22 März, Freitag

    Zeit Temperatur Niederschläge Wind Luftdruck Luftfeuchtigkeit
    00:00 +1°C° 0 mm 1 m/S 699 mmHg 72%
    01:00 +1°C° 0 mm 1 m/S 699 mmHg 71%
    02:00 +1°C° 0 mm 1 m/S 698 mmHg 70%
    03:00 +1°C° 0 mm 1 m/S 698 mmHg 68%
    04:00 +1°C° 0 mm 1 m/S 698 mmHg 67%
    05:00 +1°C° 0 mm 1 m/S 698 mmHg 64%
    06:00 +2°C° 0 mm 1 m/S 698 mmHg 62%
    07:00 +2°C° 0 mm 1 m/S 699 mmHg 59%
    08:00 +5°C° 0 mm 1 m/S 699 mmHg 52%
    09:00 +8°C° 0 mm 1 m/S 699 mmHg 45%
    10:00 +11°C° 0 mm 1 m/S 699 mmHg 38%
    11:00 +12°C° 0 mm 1 m/S 699 mmHg 37%
    12:00 +13°C° 0 mm 1 m/S 699 mmHg 36%
    13:00 +14°C° 0 mm 1 m/S 699 mmHg 35%
    14:00 +14°C° 0 mm 1 m/S 699 mmHg 37%
    15:00 +14°C° 0 mm 1 m/S 698 mmHg 40%
    16:00 +14°C° 0 mm 1 m/S 698 mmHg 42%
    17:00 +11°C° 0 mm 1 m/S 698 mmHg 51%
    18:00 +9°C° 0 mm 1 m/S 697 mmHg 59%
    19:00 +5°C° 0 mm 0 m/S 697 mmHg 67%
    20:00 +4°C° 0 mm 0 m/S 697 mmHg 69%
    21:00 +4°C° 0 mm 0 m/S 697 mmHg 71%
    22:00 +3°C° 0 mm 0 m/S 697 mmHg 73%
    23:00 +3°C° 0 mm 0 m/S 697 mmHg 73%

    Morgen, 23 März, Samstag

    Zeit Temperatur Niederschläge Wind Luftdruck Luftfeuchtigkeit
    00:00 +3°C° 0 mm 0 m/S 697 mmHg 73%
    01:00 +4°C° 0 mm 1 m/S 697 mmHg 74%
    02:00 +3°C° 0 mm 1 m/S 697 mmHg 74%
    03:00 +3°C° 0 mm 1 m/S 696 mmHg 74%
    04:00 +3°C° 0 mm 1 m/S 696 mmHg 73%
    05:00 +3°C° 0 mm 1 m/S 696 mmHg 72%
    06:00 +4°C° 0 mm 1 m/S 696 mmHg 72%
    07:00 +4°C° 0 mm 1 m/S 696 mmHg 71%
    08:00 +7°C° 0 mm 1 m/S 697 mmHg 64%
    09:00 +10°C° 0 mm 1 m/S 697 mmHg 57%
    10:00 +13°C° 0 mm 1 m/S 697 mmHg 50%
    11:00 +14°C° 0 mm 1 m/S 697 mmHg 48%
    12:00 +16°C° 0 mm 1 m/S 697 mmHg 46%
    13:00 +18°C° 0 mm 1 m/S 697 mmHg 44%
    14:00 +16°C° 0 mm 1 m/S 697 mmHg 45%
    15:00 +16°C° 0 mm 1 m/S 697 mmHg 46%
    16:00 +16°C° 0 mm 1 m/S 696 mmHg 48%
    17:00 +13°C° 0 mm 1 m/S 696 mmHg 57%
    18:00 +11°C° 0 mm 1 m/S 695 mmHg 66%
    19:00 +7°C° 0 mm 0 m/S 695 mmHg 76%
    20:00 +7°C° 0 mm 0 m/S 695 mmHg 77%
    21:00 +6°C° 0 mm 0 m/S 696 mmHg 78%
    22:00 +6°C° 0 mm 0 m/S 696 mmHg 79%
    23:00 +6°C° 0 mm 0 m/S 696 mmHg 80%

    übermorgen, 24 März, Sonntag

    Zeit Temperatur Niederschläge Wind Luftdruck Luftfeuchtigkeit
    00:00 +5°C° 0 mm 0 m/S 695 mmHg 81%
    01:00 +6°C° 0 mm 1 m/S 695 mmHg 81%
    02:00 +6°C° 0 mm 1 m/S 695 mmHg 82%
    03:00 +6°C° 0 mm 1 m/S 695 mmHg 83%
    04:00 +5°C° 0 mm 1 m/S 695 mmHg 83%
    05:00 +6°C° 0 mm 1 m/S 695 mmHg 82%
    06:00 +6°C° 0 mm 1 m/S 695 mmHg 81%
    07:00 +6°C° 0 mm 1 m/S 695 mmHg 80%
    08:00 +9°C° 0 mm 1 m/S 695 mmHg 71%
    09:00 +11°C° 0 mm 0 m/S 695 mmHg 62%
    10:00 +14°C° 0 mm 0 m/S 696 mmHg 53%
    11:00 +16°C° 0 mm 1 m/S 696 mmHg 49%
    12:00 +18°C° 0 mm 1 m/S 695 mmHg 46%
    13:00 +19°C° 0 mm 1 m/S 695 mmHg 42%
    14:00 +19°C° 0 mm 1 m/S 695 mmHg 43%
    15:00 +19°C° 0 mm 1 m/S 694 mmHg 44%
    16:00 +18°C° 0 mm 1 m/S 694 mmHg 44%
    17:00 +15°C° 0 mm 1 m/S 694 mmHg 52%
    18:00 +12°C° 0 mm 0 m/S 693 mmHg 60%
    19:00 +9°C° 0 mm 0 m/S 693 mmHg 68%
    20:00 +9°C° 0 mm 0 m/S 693 mmHg 70%
    21:00 +9°C° 0 mm 0 m/S 694 mmHg 72%
    22:00 +10°C° 0 mm 1 m/S 694 mmHg 74%
    23:00 +9°C° 0.1 mm 1 m/S 694 mmHg 76%

    25 März, Montag

    Zeit Temperatur Niederschläge Wind Luftdruck Luftfeuchtigkeit
    00:00 +8°C° 0.1 mm 0 m/S 694 mmHg 79%
    01:00 +8°C° 0.1 mm 0 m/S 694 mmHg 82%
    02:00 +8°C° 0.4 mm 0 m/S 694 mmHg 85%
    03:00 +7°C° 0.4 mm 0 m/S 694 mmHg 88%
    04:00 +7°C° 0.4 mm 0 m/S 693 mmHg 91%
    05:00 +7°C° 0.2 mm 0 m/S 694 mmHg 91%
    06:00 +7°C° 0.2 mm 0 m/S 694 mmHg 92%
    07:00 +7°C° 0.2 mm 0 m/S 694 mmHg 92%
    08:00 +8°C° 0.5 mm 1 m/S 694 mmHg 90%
    09:00 +9°C° 0.5 mm 1 m/S 694 mmHg 88%
    10:00 +9°C° 0.5 mm 1 m/S 695 mmHg 86%
    11:00 +9°C° 0.2 mm 1 m/S 694 mmHg 84%
    12:00 +9°C° 0.2 mm 1 m/S 694 mmHg 82%
    13:00 +9°C° 0.2 mm 1 m/S 694 mmHg 80%
    14:00 +9°C° 0.1 mm 1 m/S 694 mmHg 79%
    15:00 +9°C° 0.1 mm 1 m/S 693 mmHg 78%
    16:00 +9°C° 0.1 mm 1 m/S 693 mmHg 77%
    17:00 +8°C° 0.1 mm 1 m/S 693 mmHg 82%
    18:00 +7°C° 0.1 mm 1 m/S 693 mmHg 87%
    19:00 +6°C° 0.1 mm 1 m/S 693 mmHg 91%
    20:00 +6°C° 0.1 mm 1 m/S 693 mmHg 91%
    21:00 +5°C° 0.1 mm 1 m/S 694 mmHg 91%
    22:00 +5°C° 0.1 mm 1 m/S 694 mmHg 91%
    23:00 +4°C° 0 mm 1 m/S 694 mmHg 91%

    26 März, Dienstag

    Zeit Temperatur Niederschläge Wind Luftdruck Luftfeuchtigkeit
    00:00 +4°C° 0 mm 1 m/S 694 mmHg 90%
    01:00 +3°C° 0 mm 1 m/S 694 mmHg 89%
    02:00 +3°C° 0 mm 1 m/S 694 mmHg 88%
    03:00 +2°C° 0 mm 1 m/S 694 mmHg 87%
    04:00 +2°C° 0 mm 1 m/S 694 mmHg 85%
    05:00 +2°C° 0 mm 1 m/S 694 mmHg 82%
    06:00 +2°C° 0 mm 1 m/S 695 mmHg 79%
    07:00 +2°C° 0 mm 1 m/S 695 mmHg 76%
    08:00 +4°C° 0 mm 1 m/S 696 mmHg 66%
    09:00 +5°C° 0 mm 2 m/S 697 mmHg 56%
    10:00 +7°C° 0 mm 2 m/S 697 mmHg 46%
    11:00 +7°C° 0 mm 2 m/S 697 mmHg 40%
    12:00 +8°C° 0 mm 3 m/S 698 mmHg 34%
    13:00 +9°C° 0 mm 3 m/S 698 mmHg 28%
    14:00 +9°C° 0 mm 3 m/S 697 mmHg 28%
    15:00 +9°C° 0 mm 3 m/S 697 mmHg 27%
    16:00 +9°C° 0 mm 3 m/S 697 mmHg 26%
    17:00 +7°C° 0 mm 2 m/S 697 mmHg 33%
    18:00 +5°C° 0 mm 2 m/S 697 mmHg 39%
    19:00 +3°C° 0 mm 1 m/S 697 mmHg 46%
    20:00 +3°C° 0 mm 1 m/S 698 mmHg 48%
    21:00 +2°C° 0 mm 1 m/S 698 mmHg 50%
    22:00 +2°C° 0 mm 1 m/S 698 mmHg 52%
    23:00 +1°C° 0 mm 1 m/S 698 mmHg 54%

    27 März, Mittwoch

    Zeit Temperatur Niederschläge Wind Luftdruck Luftfeuchtigkeit
    00:00 +1°C° 0 mm 1 m/S 698 mmHg 56%
    01:00 +1°C° 0 mm 1 m/S 698 mmHg 58%
    02:00 0°C° 0 mm 1 m/S 698 mmHg 60%
    03:00 0°C° 0 mm 1 m/S 698 mmHg 61%
    04:00 0°C° 0 mm 1 m/S 698 mmHg 62%
    05:00 0°C° 0 mm 0 m/S 698 mmHg 61%
    06:00 0°C° 0 mm 0 m/S 698 mmHg 60%
    07:00 +1°C° 0 mm 0 m/S 698 mmHg 59%
    08:00 +4°C° 0 mm 0 m/S 699 mmHg 50%
    09:00 +7°C° 0 mm 0 m/S 699 mmHg 41%
    10:00 +10°C° 0 mm 0 m/S 700 mmHg 32%
    11:00 +11°C° 0 mm 0 m/S 700 mmHg 31%
    12:00 +12°C° 0 mm 0 m/S 699 mmHg 30%
    13:00 +13°C° 0 mm 0 m/S 699 mmHg 29%
    14:00 +13°C° 0 mm 1 m/S 699 mmHg 31%
    15:00 +12°C° 0 mm 1 m/S 699 mmHg 33%
    16:00 +12°C° 0 mm 1 m/S 698 mmHg 34%
    17:00 +10°C° 0 mm 1 m/S 698 mmHg 44%
    18:00 +8°C° 0 mm 1 m/S 699 mmHg 53%
    19:00 +6°C° 0 mm 1 m/S 699 mmHg 62%
    20:00 +5°C° 0 mm 1 m/S 699 mmHg 65%
    21:00 +4°C° 0 mm 1 m/S 699 mmHg 68%
    22:00 +4°C° 0 mm 1 m/S 700 mmHg 71%
    23:00 +3°C° 0 mm 1 m/S 700 mmHg 74%
    Mehr zeigen